Location: Barcelona
(41.3830°N, 2.1830°E)
Time: 13:10:18
(UTC+01:00)

ISS - Pass Details

Date: 04 December 2019
Orbit: 411 x 421 km, 51.6° (Epoch: 11 December)

Event Time Altitude Azimuth Distance (km) Brightness Sun altitude
Rises 18:23:50 0° 306° (NW) 2,359 0.6 -11.4°
Reaches altitude 10° 18:26:32 10° 330° (NNW) 1,497 -0.8 -11.8°
Maximum altitude 18:28:42 16° 10° (N) 1,189 -1.7 -12.2°
Enters shadow 18:29:39 14° 30° (NNE) 1,257 -1.8 -12.4°
